Regional Weather Roundup
Issued by NWS Midland/Odessa, TX

Skip options and go directly to product.
Home | Oldest Version | Previous Version | Current Version | All | Graphics & Text | Save Text | Print | Product List | Glossary On

Skip product version selection by date and time.   
281
ASUS44 KMAF 090110
RWRMAF
MIDLAND AREA WEATHER ROUNDUP
NATIONAL WEATHER SERVICE MIDLAND TX
700 PM CST THU DEC 08 2016

...IN SOUTHWEST TEXAS AND SOUTHEAST NEW MEXICO...

CITY           SKY/WX    TMP DP  RH WIND       PRES   REMARKS
ALPINE         CLOUDY    26  25  96 E6        30.54R WCI  19
ANDREWS        CLOUDY    27  21  78 E5        30.56R WCI  22
ARTESIA        CLOUDY    30  25  80 S10       30.51S WCI  21
BIG SPRING     CLOUDY    30  22  73 NE6       30.61S WCI  24
CARLSBAD       CLOUDY    29  26  89 S7        30.53R WCI  22
DRYDEN           N/A     35  26  69 NE9       30.56R WCI  28
FORT STOCKTON  CLOUDY    30  25  81 E7        30.55R WCI  23
GUAD PASS      FRZ RAIN  20  20 100 NE25      30.40R VSB 1/4 WCI   2
HOBBS          CLOUDY    28  21  74 SE7       30.53R WCI  21
MARFA          CLOUDY    26  24  92 NE12      30.46R WCI  16
MIDLAND AIRPK  CLOUDY    29  22  76 E3        30.59R
MIDLAND INTL   CLOUDY    29  21  72 E7        30.57R WCI  22
ODESSA         CLOUDY    28  21  75 E6        30.57R WCI  22
PECOS          CLOUDY    31  26  79 E8        30.58R WCI  24
PRESIDIO       CLOUDY    38  30  71 NE17G23   30.47R WCI  29
SEMINOLE       CLOUDY    29  21  71 CALM      30.56R
SNYDER         CLOUDY    27  17  66 NE3       30.60F
WINK           CLOUDY    30  23  75 E8        30.56R WCI  22
$$
...OTHER STATIONS IN TEXAS...

CITY           SKY/WX    TMP DP  RH WIND       PRES   REMARKS
ABILENE        CLOUDY    29  18  63 N9        30.63R WCI  20
AMARILLO       CLOUDY    24   7  48 SE10      30.51S WCI  14
AUSTIN         CLOUDY    39  23  52 N17       30.60R WCI  30
BROWNSVILLE    LGT RAIN  45  43  93 NW24G31   30.41R FOG     WCI  36
CORPUS CHRISTI DRIZZLE   43  39  86 N23G30    30.49R WCI  34
DALLAS FTW     CLOUDY    36  13  38 N10       30.63R WCI  28
DEL RIO        CLOUDY    41  27  57 N9        30.59R WCI  35
EL PASO        PTCLDY    36  24  62 E12       30.39R WCI  28
HOUSTON INT    CLOUDY    44  33  65 N16G24    30.51R WCI  37
LUBBOCK        CLOUDY    28  14  55 SE6       30.54R WCI  22
SAN ANGELO     CLOUDY    30  22  72 NE5       30.62R WCI  25
SAN ANTONIO    CLOUDY    40  23  50 N13       30.57R WCI  32
WACO           CLOUDY    35  20  54 N13       30.64R WCI  26
WICHITA FALLS  NOT AVBL
$$
...OTHER LOCATIONS IN NEW MEXICO...

CITY           SKY/WX    TMP DP  RH WIND       PRES   REMARKS
ALAMAGORDO     NOT AVBL
ALBUQUERQUE    PTCLDY    36  16  44 CALM      30.34R
CANNON AFB     CLOUDY    24  15  68 SE7       30.46S WCI  16
CLOVIS         CLOUDY    25  10  54 S8        30.47S WCI  16
HOLLOMAN AFB   CLEAR     35  23  61 S10       30.43R WCI  27
ROSWELL        CLOUDY    30  20  66 S7        30.49R WCI  23
RUIDOSO        FOG       19  18  93 CALM      30.36S VSB<1/4
SANTA FE       CLOUDY    26  13  57 CALM      30.32R
TRUTH OR CONSE PTCLDY    40  24  53 E3        30.32S
TUCUMCARI      CLOUDY    26  16  65 SW7       30.46R WCI  18
$$